| time (UTC) | temp F | wind direction | speed MPH | gust MPH | rain 1hr in | rain 24hr in | rain mn in | humidity % | barometer mb |
| 20260506024600 | 63 | 213 | 8.0 | 18.0 | 0.00 | 0.00 | 0.00 | 77 | 1010.9 |
| 20260506023058 | 62 | 174 | 9.0 | 18.0 | 0.00 | 0.00 | 0.00 | 76 | 1010.8 |
| 20260506021605 | 63 | 186 | 8.0 | 23.0 | 0.00 | 0.00 | 0.00 | 76 | 1011.0 |
| 20260506020056 | 63 | 231 | 7.0 | 14.0 | 0.00 | 0.00 | 0.00 | 75 | 1010.9 |
| 20260506014555 | 63 | 200 | 7.0 | 17.0 | 0.00 | 0.00 | 0.00 | 74 | 1010.9 |
| 20260506013104 | 64 | 216 | 10.0 | 20.0 | 0.00 | 0.00 | 0.00 | 72 | 1010.6 |
| 20260506011605 | 65 | 206 | 6.0 | 23.0 | 0.00 | 0.00 | 0.00 | 70 | 1010.5 |
| 20260506010054 | 66 | 169 | 9.0 | 17.0 | 0.00 | 0.00 | 0.00 | 68 | 1010.3 |
| 20260506004553 | 66 | 196 | 7.0 | 18.0 | 0.00 | 0.00 | 0.00 | 68 | 1010.1 |
| 20260506003054 | 67 | 144 | 11.0 | 21.0 | 0.00 | 0.00 | 0.00 | 67 | 1010.0 |
| 20260506001553 | 67 | 219 | 10.0 | 24.0 | 0.00 | 0.00 | 0.00 | 67 | 1009.9 |
| 20260506000051 | 67 | 220 | 6.0 | 20.0 | 0.00 | 0.00 | 0.00 | 67 | 1009.7 |
| 20260505234600 | 67 | 225 | 6.0 | 20.0 | 0.00 | 0.00 | 0.00 | 67 | 1009.7 |
| 20260505233051 | 67 | 172 | 7.0 | 15.0 | 0.00 | 0.00 | 0.00 | 67 | 1009.5 |
| 20260505231604 | 66 | 189 | 8.0 | 22.0 | 0.00 | 0.00 | 0.00 | 67 | 1009.2 |
| 20260505230052 | 67 | 206 | 9.0 | 19.0 | 0.00 | 0.00 | 0.00 | 66 | 1009.0 |
| 20260505224549 | 69 | 164 | 9.0 | 19.0 | 0.00 | 0.00 | 0.00 | 63 | 1008.9 |
| 20260505223048 | 69 | 198 | 12.0 | 22.0 | 0.00 | 0.00 | 0.00 | 62 | 1009.0 |
| 20260505221553 | 70 | 350 | 9.0 | 21.0 | 0.00 | 0.00 | 0.00 | 62 | 1008.7 |
| 20260505220046 | 70 | 171 | 12.0 | 26.0 | 0.00 | 0.00 | 0.00 | 62 | 1008.8 |
| 20260505214603 | 70 | 245 | 10.0 | 19.0 | 0.00 | 0.00 | 0.00 | 62 | 1008.5 |
| 20260505213044 | 70 | 167 | 13.0 | 20.0 | 0.00 | 0.00 | 0.00 | 63 | 1008.6 |
| 20260505211543 | 69 | 138 | 10.0 | 20.0 | 0.00 | 0.00 | 0.00 | 64 | 1008.6 |
| 20260505210044 | 70 | 210 | 12.0 | 27.0 | 0.00 | 0.00 | 0.00 | 63 | 1008.4 |
| 20260505204541 | 70 | 212 | 12.0 | 25.0 | 0.00 | 0.00 | 0.00 | 62 | 1008.5 |
| 20260505203042 | 72 | 224 | 11.0 | 25.0 | 0.00 | 0.00 | 0.00 | 61 | 1008.6 |
| 20260505201539 | 72 | 152 | 11.0 | 24.0 | 0.00 | 0.00 | 0.00 | 61 | 1008.8 |
| 20260505200044 | 73 | 207 | 8.0 | 21.0 | 0.00 | 0.00 | 0.00 | 60 | 1008.7 |
| 20260505194536 | 72 | 209 | 10.0 | 26.0 | 0.00 | 0.00 | 0.00 | 61 | 1008.8 |
| 20260505193036 | 72 | 245 | 8.0 | 20.0 | 0.00 | 0.00 | 0.00 | 62 | 1009.1 |
| 20260505191532 | 71 | 167 | 6.0 | 19.0 | 0.00 | 0.00 | 0.00 | 63 | 1009.4 |
| 20260505190039 | 71 | 232 | 9.0 | 23.0 | 0.00 | 0.00 | 0.00 | 62 | 1009.6 |
| 20260505184530 | 73 | 171 | 6.0 | 15.0 | 0.00 | 0.00 | 0.00 | 62 | 1009.7 |
| 20260505183034 | 72 | 212 | 4.0 | 20.0 | 0.00 | 0.00 | 0.00 | 64 | 1009.8 |
| 20260505181526 | 72 | 195 | 11.0 | 19.0 | 0.00 | 0.00 | 0.00 | 63 | 1009.8 |
| 20260505180025 | 72 | 148 | 5.0 | 14.0 | 0.00 | 0.00 | 0.00 | 63 | 1010.1 |
| 20260505174523 | 72 | 205 | 7.0 | 17.0 | 0.00 | 0.00 | 0.00 | 62 | 1010.4 |
| 20260505173021 | 73 | 213 | 8.0 | 17.0 | 0.00 | 0.00 | 0.00 | 61 | 1010.2 |
| 20260505171520 | 74 | 163 | 11.0 | 17.0 | 0.00 | 0.00 | 0.00 | 59 | 1010.3 |
| 20260505170021 | 74 | 221 | 7.0 | 19.0 | 0.00 | 0.00 | 0.00 | 60 | 1010.4 |
| 20260505164517 | 74 | 198 | 7.0 | 14.0 | 0.00 | 0.00 | 0.00 | 59 | 1010.4 |
| 20260505163019 | 75 | 229 | 7.0 | 17.0 | 0.00 | 0.00 | 0.00 | 57 | 1010.7 |
| 20260505161518 | 75 | 169 | 8.0 | 16.0 | 0.00 | 0.00 | 0.00 | 57 | 1010.7 |
| 20260505153008 | 73 | 245 | 3.0 | 15.0 | 0.00 | 0.00 | 0.00 | 59 | 1011.1 |
| 20260505151506 | 72 | 196 | 6.0 | 15.0 | 0.00 | 0.00 | 0.00 | 60 | 1011.3 |
| 20260505140113 | 70 | 296 | 6.0 | 13.0 | 0.00 | 0.00 | 0.00 | 63 | 1011.3 |
| 20260505124544 | 66 | 176 | 2.0 | 16.0 | 0.00 | 0.00 | 0.00 | 68 | 1011.1 |
| 20260505123047 | 65 | 228 | 3.0 | 9.0 | 0.00 | 0.00 | 0.00 | 70 | 1011.1 |
| 20260505121539 | 63 | 176 | 3.0 | 12.0 | 0.00 | 0.00 | 0.00 | 74 | 1011.1 |
| 20260505120043 | 61 | 212 | 3.0 | 8.0 | 0.00 | 0.00 | 0.00 | 77 | 1011.2 |
| 20260505114529 | 60 | 195 | 3.0 | 10.0 | 0.00 | 0.00 | 0.00 | 80 | 1011.3 |
| 20260505113026 | 58 | 169 | 3.0 | 8.0 | 0.00 | 0.00 | 0.00 | 83 | 1011.5 |
| 20260505111524 | 57 | 202 | 1.0 | 10.0 | 0.00 | 0.00 | 0.00 | 84 | 1011.5 |
| 20260505101533 | 54 | 169 | 2.0 | 11.0 | 0.00 | 0.00 | 0.00 | 90 | 1010.7 |
| 20260505100019 | 54 | 207 | 4.0 | 11.0 | 0.00 | 0.00 | 0.00 | 90 | 1010.4 |
| 20260505094530 | 53 | 212 | 1.0 | 8.0 | 0.00 | 0.00 | 0.00 | 91 | 1010.4 |
| 20260505093018 | 53 | 181 | 3.0 | 8.0 | 0.00 | 0.00 | 0.00 | 91 | 1010.4 |
| 20260505091517 | 53 | 208 | 5.0 | 11.0 | 0.00 | 0.00 | 0.00 | 91 | 1010.5 |
| 20260505090020 | 53 | 176 | 5.0 | 10.0 | 0.00 | 0.00 | 0.00 | 91 | 1010.4 |
| 20260505084515 | 53 | 224 | 2.0 | 10.0 | 0.00 | 0.00 | 0.00 | 91 | 1010.6 |
| 20260505083018 | 53 | 224 | 3.0 | 9.0 | 0.00 | 0.00 | 0.00 | 90 | 1010.5 |
| 20260505081513 | 54 | 233 | 5.0 | 13.0 | 0.00 | 0.00 | 0.00 | 90 | 1010.5 |
| 20260505080012 | 54 | 205 | 4.0 | 12.0 | 0.00 | 0.00 | 0.00 | 90 | 1010.4 |
| 20260505074510 | 54 | 182 | 3.0 | 11.0 | 0.00 | 0.00 | 0.00 | 90 | 1010.5 |
| 20260505073008 | 54 | 199 | 7.0 | 16.0 | 0.00 | 0.00 | 0.00 | 90 | 1010.4 |
| 20260505071520 | 54 | 202 | 7.0 | 15.0 | 0.00 | 0.00 | 0.00 | 89 | 1010.3 |
| 20260505070004 | 54 | 253 | 6.0 | 15.0 | 0.00 | 0.00 | 0.00 | 88 | 1010.3 |
| 20260505064506 | 54 | 154 | 4.0 | 12.0 | 0.00 | 0.00 | 0.00 | 88 | 1010.3 |
| 20260505063100 | 54 | 167 | 6.0 | 13.0 | 0.00 | 0.00 | 0.00 | 88 | 1010.4 |
| 20260505061557 | 55 | 205 | 6.0 | 13.0 | 0.00 | 0.00 | 0.00 | 87 | 1010.5 |
| 20260505060055 | 55 | 159 | 7.0 | 14.0 | 0.00 | 0.00 | 0.00 | 86 | 1010.5 |
| 20260505054552 | 55 | 221 | 5.0 | 13.0 | 0.00 | 0.00 | 0.00 | 85 | 1010.7 |
| 20260505053049 | 55 | 217 | 5.0 | 12.0 | 0.00 | 0.00 | 0.00 | 84 | 1010.7 |
| 20260505051558 | 56 | 231 | 7.0 | 13.0 | 0.00 | 0.00 | 0.00 | 82 | 1010.8 |
| 20260505041537 | 59 | 205 | 8.0 | 14.0 | 0.00 | 0.00 | 0.00 | 72 | 1011.2 |
| 20260505040031 | 59 | 207 | 6.0 | 13.0 | 0.00 | 0.00 | 0.00 | 71 | 1011.2 |
| 20260505034532 | 59 | 169 | 3.0 | 13.0 | 0.00 | 0.00 | 0.00 | 72 | 1011.1 |
| 20260505033031 | 59 | 227 | 5.0 | 14.0 | 0.00 | 0.00 | 0.00 | 72 | 1011.1 |
| 20260505031532 | 59 | 213 | 3.0 | 8.0 | 0.00 | 0.00 | 0.00 | 72 | 1011.2 |
| 20260505030029 | 59 | 163 | 4.0 | 11.0 | 0.00 | 0.00 | 0.00 | 72 | 1011.3 |